Time,TemperatureF,DewpointF,PressureIn,WindDirection,WindDirectionDegrees,WindSpeedMPH,WindSpeedGustMPH,Humidity,HourlyPrecipIn,Conditions,Clouds,dailyrainin,SoftwareType,DateUTC
2013-06-03 00:01:00,74.5,73.0,29.89,SE,135,0.0,0.0,95,0.02,-RA,,0.06,WeatherDisplay:10.37,2013-06-03 04:01:00,
2013-06-03 00:06:00,74.5,73.3,29.89,SE,135,0.0,0.0,96,0.00,-RA,,0.00,WeatherDisplay:10.37,2013-06-03 04:06:00,
2013-06-03 00:11:00,74.3,73.1,29.89,SE,135,0.0,0.0,96,0.00,-RA,,0.00,WeatherDisplay:10.37,2013-06-03 04:11:00,
2013-06-03 00:16:00,74.3,73.1,29.89,SE,135,0.0,0.0,96,0.00,-RA,,0.00,WeatherDisplay:10.37,2013-06-03 04:16:00,
2013-06-03 00:21:00,74.1,72.9,29.89,SE,135,0.0,0.0,96,0.00,-RA,,0.00,WeatherDisplay:10.37,2013-06-03 04:21:00,
2013-06-03 00:27:00,74.1,72.9,29.89,SE,135,0.0,0.0,96,0.00,-RA,,0.00,WeatherDisplay:10.37,2013-06-03 04:27:00,
2013-06-03 00:32:00,74.1,72.9,29.89,SE,135,0.0,0.0,96,0.00,-RA,,0.00,WeatherDisplay:10.37,2013-06-03 04:32:00,
2013-06-03 00:37:00,73.9,72.7,29.89,SE,135,0.0,0.0,96,0.00,-RA,,0.00,WeatherDisplay:10.37,2013-06-03 04:37:00,
2013-06-03 00:42:00,73.8,72.5,29.89,SE,135,0.0,0.0,96,0.00,-RA,,0.00,WeatherDisplay:10.37,2013-06-03 04:42:00,
2013-06-03 00:47:00,73.8,72.5,29.89,SE,135,0.0,0.0,96,0.00,-RA,,0.00,WeatherDisplay:10.37,2013-06-03 04:47:00,
2013-06-03 00:52:00,73.6,72.4,29.89,SE,135,0.0,0.0,96,0.00,-RA,,0.00,WeatherDisplay:10.37,2013-06-03 04:52:00,
2013-06-03 00:57:00,73.6,72.4,29.89,SE,135,0.0,0.0,96,0.00,-RA,,0.00,WeatherDisplay:10.37,2013-06-03 04:57:00,
2013-06-03 01:02:00,73.8,72.5,29.89,SE,135,0.0,0.0,96,0.00,-RA,,0.00,WeatherDisplay:10.37,2013-06-03 05:02:00,
2013-06-03 01:07:00,73.8,72.5,29.89,SE,135,0.0,0.0,96,0.00,-RA,,0.00,WeatherDisplay:10.37,2013-06-03 05:07:00,
2013-06-03 01:12:00,73.8,72.5,29.89,SE,135,0.0,0.0,96,0.00,-RA,,0.00,WeatherDisplay:10.37,2013-06-03 05:12:00,
2013-06-03 01:17:00,73.6,72.4,29.89,SE,135,0.0,0.0,96,0.00,-RA,,0.00,WeatherDisplay:10.37,2013-06-03 05:17:00,
2013-06-03 01:22:00,73.4,72.2,29.89,SE,135,0.0,0.0,96,0.00,-RA,,0.00,WeatherDisplay:10.37,2013-06-03 05:22:00,
2013-06-03 01:27:00,73.2,72.0,29.89,SE,135,0.0,0.0,96,0.00,-RA,,0.00,WeatherDisplay:10.37,2013-06-03 05:27:00,
2013-06-03 01:32:00,73.2,72.0,29.89,SE,135,0.0,0.0,96,0.00,-RA,,0.00,WeatherDisplay:10.37,2013-06-03 05:32:00,
2013-06-03 01:37:00,73.0,72.1,29.89,SE,135,0.0,0.0,97,0.00,-RA,,0.00,WeatherDisplay:10.37,2013-06-03 05:37:00,
2013-06-03 01:42:00,73.0,72.1,29.89,SE,135,0.0,0.0,97,0.00,-RA,,0.00,WeatherDisplay:10.37,2013-06-03 05:42:00,
2013-06-03 01:47:00,73.2,72.3,29.90,SE,135,0.0,0.0,97,0.00,-RA,,0.00,WeatherDisplay:10.37,2013-06-03 05:47:00,
2013-06-03 01:52:00,73.2,72.3,29.89,SE,135,0.0,0.0,97,0.00,-RA,,0.00,WeatherDisplay:10.37,2013-06-03 05:52:00,
2013-06-03 01:57:00,73.0,72.1,29.89,SE,135,0.0,0.0,97,0.00,-RA,,0.00,WeatherDisplay:10.37,2013-06-03 05:57:00,
2013-06-03 02:02:00,72.7,71.8,29.89,SE,135,0.0,0.0,97,0.00,-RA,,0.00,WeatherDisplay:10.37,2013-06-03 06:02:00,
2013-06-03 02:07:00,73.0,72.1,29.89,SE,135,0.0,0.0,97,0.00,-RA,,0.00,WeatherDisplay:10.37,2013-06-03 06:07:00,
2013-06-03 02:12:00,73.0,72.1,29.89,SE,135,0.0,0.0,97,0.00,-RA,,0.00,WeatherDisplay:10.37,2013-06-03 06:12:00,
2013-06-03 02:17:00,73.0,72.1,29.89,SE,135,0.0,0.0,97,0.00,-RA,,0.00,WeatherDisplay:10.37,2013-06-03 06:17:00,
2013-06-03 02:22:00,73.0,72.1,29.89,SE,135,0.0,0.0,97,0.00,-RA,,0.00,WeatherDisplay:10.37,2013-06-03 06:22:00,
2013-06-03 02:27:00,73.0,72.1,29.89,SE,135,0.0,0.0,97,0.00,-RA,,0.00,WeatherDisplay:10.37,2013-06-03 06:27:00,
2013-06-03 02:32:00,73.0,72.1,29.89,SE,135,0.0,0.0,97,0.00,-RA,,0.00,WeatherDisplay:10.37,2013-06-03 06:32:00,
2013-06-03 02:37:00,73.0,72.1,29.89,SE,135,0.0,0.0,97,0.00,-RA,,0.00,WeatherDisplay:10.37,2013-06-03 06:37:00,
2013-06-03 02:42:00,72.9,72.0,29.89,SE,135,0.0,0.0,97,0.00,-RA,,0.00,WeatherDisplay:10.37,2013-06-03 06:42:00,
2013-06-03 02:47:00,72.5,71.3,29.89,SE,135,0.0,0.0,96,0.00,-RA,,0.00,WeatherDisplay:10.37,2013-06-03 06:47:00,
2013-06-03 02:52:00,72.3,71.1,29.89,SE,135,0.0,0.0,96,0.00,-RA,,0.00,WeatherDisplay:10.37,2013-06-03 06:52:00,
2013-06-03 02:57:00,72.3,71.1,29.89,SE,135,0.0,0.0,96,0.00,-RA,,0.00,WeatherDisplay:10.37,2013-06-03 06:57:00,
2013-06-03 03:02:00,72.3,71.1,29.88,SE,135,0.0,0.0,96,0.00,-RA,,0.00,WeatherDisplay:10.37,2013-06-03 07:02:00,
2013-06-03 03:07:00,72.3,71.1,29.88,SE,135,0.0,0.0,96,0.00,-RA,,0.00,WeatherDisplay:10.37,2013-06-03 07:07:00,
2013-06-03 03:12:00,72.1,70.9,29.88,SE,135,0.0,0.0,96,0.00,-RA,,0.00,WeatherDisplay:10.37,2013-06-03 07:12:00,
2013-06-03 03:17:00,72.1,71.2,29.88,SE,135,0.0,0.0,97,0.00,-RA,,0.00,WeatherDisplay:10.37,2013-06-03 07:17:00,
2013-06-03 03:22:00,72.1,71.2,29.88,SE,135,0.0,0.0,97,0.00,-RA,,0.00,WeatherDisplay:10.37,2013-06-03 07:22:00,
2013-06-03 03:27:00,72.0,71.1,29.88,SE,135,0.0,0.0,97,0.00,-RA,,0.00,WeatherDisplay:10.37,2013-06-03 07:27:00,
2013-06-03 03:32:00,72.0,71.1,29.88,SE,135,0.0,0.0,97,0.00,-RA,,0.00,WeatherDisplay:10.37,2013-06-03 07:32:00,
2013-06-03 03:37:00,72.1,71.2,29.88,SE,135,0.0,0.0,97,0.00,-RA,,0.00,WeatherDisplay:10.37,2013-06-03 07:37:00,
2013-06-03 03:42:00,72.1,71.2,29.88,SE,135,0.0,0.0,97,0.00,-RA,,0.00,WeatherDisplay:10.37,2013-06-03 07:42:00,
2013-06-03 03:47:00,72.1,71.2,29.88,SE,135,0.0,0.0,97,0.00,-RA,,0.00,WeatherDisplay:10.37,2013-06-03 07:47:00,
2013-06-03 03:52:00,72.1,71.2,29.88,SE,135,0.0,0.0,97,0.00,-RA,,0.00,WeatherDisplay:10.37,2013-06-03 07:52:00,
2013-06-03 03:57:00,72.0,71.1,29.87,SE,135,0.0,0.0,97,0.00,-RA,,0.00,WeatherDisplay:10.37,2013-06-03 07:57:00,
2013-06-03 04:02:00,72.1,71.2,29.87,SE,135,0.0,0.0,97,0.00,-RA,,0.00,WeatherDisplay:10.37,2013-06-03 08:02:00,
2013-06-03 04:07:00,72.0,71.1,29.87,SE,135,0.0,0.0,97,0.00,BKN,,0.00,WeatherDisplay:10.37,2013-06-03 08:07:00,
2013-06-03 04:12:00,72.1,71.2,29.87,SE,135,0.0,0.0,97,0.00,BKN,,0.00,WeatherDisplay:10.37,2013-06-03 08:12:00,
2013-06-03 04:17:00,72.0,71.1,29.87,SE,135,0.0,0.0,97,0.00,BKN,,0.00,WeatherDisplay:10.37,2013-06-03 08:17:00,
2013-06-03 04:22:00,71.8,70.9,29.87,SE,135,0.0,0.0,97,0.00,BKN,,0.00,WeatherDisplay:10.37,2013-06-03 08:22:00,
2013-06-03 04:27:00,71.8,70.9,29.87,SE,135,0.0,0.0,97,0.00,BKN,,0.00,WeatherDisplay:10.37,2013-06-03 08:27:00,
2013-06-03 04:32:00,71.4,70.5,29.87,SE,135,0.0,0.0,97,0.00,BKN,,0.00,WeatherDisplay:10.37,2013-06-03 08:32:00,
2013-06-03 04:37:00,71.6,70.7,29.87,SE,135,0.0,0.0,97,0.00,BKN,,0.00,WeatherDisplay:10.37,2013-06-03 08:37:00,
2013-06-03 04:42:00,71.4,70.5,29.87,SE,135,0.0,0.0,97,0.00,BKN,,0.00,WeatherDisplay:10.37,2013-06-03 08:42:00,
2013-06-03 04:47:00,71.4,70.5,29.87,SE,135,0.0,0.0,97,0.00,BKN,,0.00,WeatherDisplay:10.37,2013-06-03 08:47:00,
2013-06-03 04:52:00,71.8,70.9,29.87,SE,135,0.0,0.0,97,0.00,BKN,,0.00,WeatherDisplay:10.37,2013-06-03 08:52:00,
2013-06-03 04:57:00,71.8,70.9,29.87,SE,135,0.0,0.0,97,0.00,BKN,,0.00,WeatherDisplay:10.37,2013-06-03 08:57:00,
2013-06-03 05:02:00,71.6,70.7,29.87,SE,135,0.0,0.0,97,0.00,BKN,,0.00,WeatherDisplay:10.37,2013-06-03 09:02:00,
2013-06-03 05:07:00,71.4,70.5,29.87,SE,135,0.0,0.0,97,0.00,BKN,,0.00,WeatherDisplay:10.37,2013-06-03 09:07:00,
2013-06-03 05:12:00,71.2,70.3,29.87,SE,135,0.0,0.0,97,0.00,BKN,,0.00,WeatherDisplay:10.37,2013-06-03 09:12:00,
2013-06-03 05:17:00,71.2,70.3,29.87,SE,135,0.0,0.0,97,0.00,SCT,,0.00,WeatherDisplay:10.37,2013-06-03 09:17:00,
2013-06-03 05:22:00,70.9,70.0,29.87,SE,135,0.0,0.0,97,0.00,SCT,,0.00,WeatherDisplay:10.37,2013-06-03 09:22:00,
2013-06-03 05:27:00,71.1,70.2,29.87,SE,135,0.0,0.0,97,0.00,SCT,,0.00,WeatherDisplay:10.37,2013-06-03 09:27:00,
2013-06-03 05:32:00,71.2,70.3,29.87,SE,135,0.0,0.0,97,0.00,SCT,,0.00,WeatherDisplay:10.37,2013-06-03 09:32:00,
2013-06-03 05:37:00,71.2,70.3,29.87,SE,135,0.0,0.0,97,0.00,SCT,,0.00,WeatherDisplay:10.37,2013-06-03 09:37:00,
2013-06-03 05:42:00,71.1,70.2,29.87,SE,135,0.0,0.0,97,0.00,SCT,,0.00,WeatherDisplay:10.37,2013-06-03 09:42:00,
2013-06-03 05:47:00,70.9,70.0,29.87,SE,135,0.0,0.0,97,0.00,SCT,,0.00,WeatherDisplay:10.37,2013-06-03 09:47:00,
2013-06-03 05:52:00,70.9,70.0,29.87,SE,135,0.0,0.0,97,0.00,SCT,,0.00,WeatherDisplay:10.37,2013-06-03 09:52:00,
2013-06-03 05:57:00,71.1,70.2,29.87,SE,135,0.0,0.0,97,0.00,SCT,,0.00,WeatherDisplay:10.37,2013-06-03 09:57:00,
2013-06-03 06:02:00,70.9,70.0,29.87,SE,135,0.0,0.0,97,0.00,SCT,,0.00,WeatherDisplay:10.37,2013-06-03 10:02:00,
2013-06-03 06:07:00,70.9,70.0,29.87,SE,135,0.0,0.0,97,0.00,SCT,,0.00,WeatherDisplay:10.37,2013-06-03 10:07:00,
2013-06-03 06:12:00,71.2,70.3,29.87,SE,135,0.0,0.0,97,0.00,SCT,,0.00,WeatherDisplay:10.37,2013-06-03 10:12:00,
2013-06-03 06:17:00,71.2,70.3,29.87,SE,135,0.0,0.0,97,0.00,SCT,,0.00,WeatherDisplay:10.37,2013-06-03 10:17:00,
2013-06-03 06:22:00,70.9,70.0,29.88,SE,135,0.0,0.0,97,0.00,SCT,,0.00,WeatherDisplay:10.37,2013-06-03 10:22:00,
2013-06-03 06:27:00,70.9,70.0,29.88,SE,135,0.0,0.0,97,0.00,SCT,,0.00,WeatherDisplay:10.37,2013-06-03 10:27:00,
2013-06-03 06:32:00,70.9,70.0,29.88,SE,135,0.0,0.0,97,0.00,SCT,,0.00,WeatherDisplay:10.37,2013-06-03 10:32:00,
2013-06-03 06:37:00,70.9,70.0,29.88,SE,135,0.0,0.0,97,0.00,SCT,,0.00,WeatherDisplay:10.37,2013-06-03 10:37:00,
2013-06-03 06:42:00,70.9,70.0,29.88,SE,135,0.0,0.0,97,0.00,SCT,,0.00,WeatherDisplay:10.37,2013-06-03 10:42:00,
2013-06-03 06:47:00,70.5,69.6,29.88,SE,135,0.0,0.0,97,0.00,SCT,,0.00,WeatherDisplay:10.37,2013-06-03 10:47:00,
2013-06-03 06:52:00,70.5,69.6,29.88,SE,135,0.0,0.0,97,0.00,SCT,,0.00,WeatherDisplay:10.37,2013-06-03 10:52:00,
2013-06-03 06:57:00,70.7,69.8,29.88,SE,135,0.0,0.0,97,0.00,SCT,,0.00,WeatherDisplay:10.37,2013-06-03 10:57:00,
2013-06-03 07:02:00,70.9,70.0,29.88,SE,135,0.0,0.0,97,0.00,SCT,,0.00,WeatherDisplay:10.37,2013-06-03 11:02:00,
2013-06-03 07:07:00,71.2,70.3,29.89,SE,135,0.0,0.0,97,0.00,SCT,,0.00,WeatherDisplay:10.37,2013-06-03 11:07:00,
2013-06-03 07:12:00,71.2,70.3,29.89,SE,135,0.0,0.0,97,0.00,SCT,,0.00,WeatherDisplay:10.37,2013-06-03 11:12:00,
2013-06-03 07:17:00,71.4,70.5,29.89,SE,135,0.0,0.0,97,0.00,SCT,,0.00,WeatherDisplay:10.37,2013-06-03 11:17:00,
2013-06-03 07:22:00,71.8,70.9,29.89,SE,135,0.0,0.0,97,0.00,SCT,,0.00,WeatherDisplay:10.37,2013-06-03 11:22:00,
2013-06-03 07:27:00,72.0,71.1,29.89,SE,135,0.0,0.0,97,0.00,SCT,,0.00,WeatherDisplay:10.37,2013-06-03 11:27:00,
2013-06-03 07:32:00,72.0,71.1,29.89,SE,135,0.0,2.8,97,0.00,SCT,,0.00,WeatherDisplay:10.37,2013-06-03 11:32:00,
2013-06-03 07:37:00,72.1,71.2,29.89,SE,135,0.0,0.0,97,0.00,SCT,,0.00,WeatherDisplay:10.37,2013-06-03 11:37:00,
2013-06-03 07:42:00,72.1,71.2,29.89,SE,135,0.0,0.0,97,0.00,SCT,,0.00,WeatherDisplay:10.37,2013-06-03 11:42:00,
2013-06-03 07:47:00,72.7,71.8,29.89,SE,135,0.0,0.0,97,0.00,SCT,,0.00,WeatherDisplay:10.37,2013-06-03 11:47:00,
2013-06-03 07:52:00,72.9,72.0,29.90,SE,135,0.0,0.0,97,0.00,SCT,,0.00,WeatherDisplay:10.37,2013-06-03 11:52:00,
2013-06-03 07:57:00,73.0,72.1,29.90,SE,135,0.0,0.0,97,0.00,SCT,,0.00,WeatherDisplay:10.37,2013-06-03 11:57:00,
2013-06-03 08:02:00,73.0,72.1,29.90,SE,135,0.0,0.0,97,0.00,SCT,,0.00,WeatherDisplay:10.37,2013-06-03 12:02:00,
2013-06-03 08:06:00,73.2,72.3,29.90,SE,135,0.0,0.0,97,0.00,SCT,,0.00,WeatherDisplay:10.37,2013-06-03 12:06:00,
2013-06-03 08:11:00,73.4,72.5,29.90,SE,135,0.0,0.0,97,0.00,SCT,,0.00,WeatherDisplay:10.37,2013-06-03 12:11:00,
2013-06-03 08:16:00,73.8,72.9,29.90,SE,135,0.0,0.0,97,0.00,SCT,,0.00,WeatherDisplay:10.37,2013-06-03 12:16:00,
2013-06-03 08:21:00,74.3,73.4,29.90,SE,135,0.0,0.0,97,0.00,SCT,,0.00,WeatherDisplay:10.37,2013-06-03 12:21:00,
2013-06-03 08:27:00,74.5,73.6,29.91,SE,135,0.0,0.0,97,0.00,SCT,,0.00,WeatherDisplay:10.37,2013-06-03 12:27:00,
2013-06-03 08:32:00,74.8,73.9,29.91,SE,135,0.0,0.0,97,0.00,SCT,,0.00,WeatherDisplay:10.37,2013-06-03 12:32:00,
2013-06-03 08:37:00,74.8,73.9,29.91,SE,135,0.0,0.0,97,0.00,SCT,,0.00,WeatherDisplay:10.37,2013-06-03 12:37:00,
2013-06-03 08:42:00,75.0,73.8,29.91,SE,135,0.0,0.0,96,0.00,SCT,,0.00,WeatherDisplay:10.37,2013-06-03 12:42:00,
2013-06-03 08:47:00,75.4,74.5,29.91,SE,135,0.0,0.0,97,0.00,SCT,,0.00,WeatherDisplay:10.37,2013-06-03 12:47:00,
2013-06-03 08:52:00,76.1,74.9,29.91,SE,135,0.0,0.0,96,0.00,SCT,,0.00,WeatherDisplay:10.37,2013-06-03 12:52:00,
2013-06-03 08:57:00,76.3,75.1,29.92,SE,135,0.0,0.0,96,0.00,SCT,,0.00,WeatherDisplay:10.37,2013-06-03 12:57:00,
2013-06-03 09:02:00,76.6,75.1,29.91,SE,135,0.0,0.0,95,0.00,SCT,,0.00,WeatherDisplay:10.37,2013-06-03 13:02:00,
2013-06-03 09:07:00,76.8,75.3,29.91,SE,135,0.0,0.0,95,0.00,SCT,,0.00,WeatherDisplay:10.37,2013-06-03 13:07:00,
2013-06-03 09:12:00,77.5,75.7,29.91,SE,135,0.0,0.0,94,0.00,SCT,,0.00,WeatherDisplay:10.37,2013-06-03 13:12:00,
2013-06-03 09:17:00,77.7,75.5,29.92,SE,135,0.0,0.0,93,0.00,BKN,,0.00,WeatherDisplay:10.37,2013-06-03 13:17:00,
2013-06-03 09:22:00,78.1,75.9,29.92,SE,135,0.0,0.0,93,0.00,BKN,,0.00,WeatherDisplay:10.37,2013-06-03 13:22:00,
2013-06-03 09:27:00,78.1,75.2,29.91,SE,135,0.0,0.0,91,0.00,BKN,,0.00,WeatherDisplay:10.37,2013-06-03 13:27:00,
2013-06-03 09:32:00,78.8,75.6,29.91,SE,135,0.0,0.0,90,0.00,BKN,,0.00,WeatherDisplay:10.37,2013-06-03 13:32:00,
2013-06-03 09:37:00,79.0,75.5,29.91,SE,135,0.0,0.0,89,0.00,BKN,,0.00,WeatherDisplay:10.37,2013-06-03 13:37:00,
2013-06-03 09:42:00,79.5,75.7,29.91,SE,135,0.0,0.0,88,0.00,BKN,,0.00,WeatherDisplay:10.37,2013-06-03 13:42:00,
2013-06-03 09:47:00,79.7,75.5,29.91,SE,135,0.0,0.0,87,0.00,BKN,,0.00,WeatherDisplay:10.37,2013-06-03 13:47:00,
2013-06-03 09:52:00,80.2,75.0,29.90,SE,135,0.0,0.0,84,0.00,BKN,,0.00,WeatherDisplay:10.37,2013-06-03 13:52:00,
2013-06-03 09:57:00,80.6,75.7,29.90,SE,135,0.0,0.0,85,0.00,BKN,,0.00,WeatherDisplay:10.37,2013-06-03 13:57:00,
2013-06-03 10:02:00,81.1,75.8,29.91,SE,135,0.0,0.0,84,0.00,BKN,,0.00,WeatherDisplay:10.37,2013-06-03 14:02:00,
2013-06-03 10:07:00,81.5,75.1,29.91,SE,135,0.0,0.0,81,0.00,BKN,,0.00,WeatherDisplay:10.37,2013-06-03 14:07:00,
2013-06-03 10:12:00,81.7,74.9,29.91,SE,135,0.0,0.0,80,0.00,BKN,,0.00,WeatherDisplay:10.37,2013-06-03 14:12:00,
2013-06-03 10:17:00,81.7,75.3,29.91,SE,135,0.0,0.0,81,0.00,BKN,,0.00,WeatherDisplay:10.37,2013-06-03 14:17:00,
2013-06-03 10:22:00,82.6,75.8,29.91,SE,135,0.0,0.0,80,0.00,BKN,,0.00,WeatherDisplay:10.37,2013-06-03 14:22:00,
2013-06-03 10:27:00,83.1,75.9,29.91,SE,135,0.0,0.0,79,0.00,BKN,,0.00,WeatherDisplay:10.37,2013-06-03 14:27:00,
2013-06-03 10:32:00,83.8,75.9,29.91,SE,135,0.0,0.0,77,0.00,BKN,,0.00,WeatherDisplay:10.37,2013-06-03 14:32:00,
2013-06-03 10:37:00,84.0,75.6,29.91,South,180,0.0,2.3,76,0.00,BKN,,0.00,WeatherDisplay:10.37,2013-06-03 14:37:00,
2013-06-03 10:42:00,84.6,76.6,29.91,SE,135,0.0,0.0,77,0.00,BKN,,0.00,WeatherDisplay:10.37,2013-06-03 14:42:00,
2013-06-03 10:47:00,84.4,76.0,29.91,SE,135,0.0,0.0,76,0.00,BKN,,0.00,WeatherDisplay:10.37,2013-06-03 14:47:00,
2013-06-03 10:52:00,83.5,75.5,29.92,SE,135,0.0,0.0,77,0.00,BKN,,0.00,WeatherDisplay:10.37,2013-06-03 14:52:00,
2013-06-03 10:57:00,84.6,76.2,29.92,SE,135,0.0,1.4,76,0.00,BKN,,0.00,WeatherDisplay:10.37,2013-06-03 14:57:00,
2013-06-03 11:02:00,87.1,76.1,29.91,SE,135,2.1,2.8,70,0.00,BKN,,0.00,WeatherDisplay:10.37,2013-06-03 15:02:00,
2013-06-03 11:06:00,86.5,75.2,29.92,South,180,0.0,4.6,69,0.00,BKN,,0.00,WeatherDisplay:10.37,2013-06-03 15:06:00,
2013-06-03 11:11:00,84.9,75.3,29.91,South,180,0.0,0.0,73,0.00,BKN,,0.00,WeatherDisplay:10.37,2013-06-03 15:11:00,
2013-06-03 11:17:00,84.9,75.3,29.91,South,180,0.0,0.0,73,0.00,BKN,,0.00,WeatherDisplay:10.37,2013-06-03 15:17:00,
2013-06-03 11:22:00,85.1,75.5,29.92,South,180,0.0,0.0,73,0.00,BKN,,0.00,WeatherDisplay:10.37,2013-06-03 15:22:00,
2013-06-03 11:27:00,86.4,76.3,29.91,South,180,0.0,0.0,72,0.00,BKN,,0.00,WeatherDisplay:10.37,2013-06-03 15:27:00,
2013-06-03 11:32:00,87.1,76.1,29.91,South,180,0.0,0.0,70,0.00,BKN,,0.00,WeatherDisplay:10.37,2013-06-03 15:32:00,
2013-06-03 11:37:00,88.0,76.5,29.91,South,180,0.0,1.2,69,0.00,BKN,,0.00,WeatherDisplay:10.37,2013-06-03 15:37:00,
2013-06-03 11:42:00,87.1,75.2,29.91,South,180,0.0,0.0,68,0.00,BKN,,0.00,WeatherDisplay:10.37,2013-06-03 15:42:00,
2013-06-03 11:47:00,87.6,75.3,29.90,South,180,0.0,0.0,67,0.00,BKN,,0.00,WeatherDisplay:10.37,2013-06-03 15:47:00,
2013-06-03 11:52:00,87.1,75.2,29.90,SW,225,0.0,0.0,68,0.00,BKN,,0.00,WeatherDisplay:10.37,2013-06-03 15:52:00,
2013-06-03 11:57:00,89.2,75.9,29.90,SE,135,2.0,2.3,65,0.00,BKN,,0.00,WeatherDisplay:10.37,2013-06-03 15:57:00,
2013-06-03 12:02:00,89.2,75.9,29.90,SE,135,0.1,2.8,65,0.00,BKN,,0.00,WeatherDisplay:10.37,2013-06-03 16:02:00,
2013-06-03 12:07:00,89.4,76.1,29.90,SE,135,0.0,0.0,65,0.00,BKN,,0.00,WeatherDisplay:10.37,2013-06-03 16:07:00,
2013-06-03 12:12:00,88.9,75.6,29.90,East,90,0.0,0.0,65,0.00,BKN,,0.00,WeatherDisplay:10.37,2013-06-03 16:12:00,
2013-06-03 12:17:00,90.3,75.0,29.90,East,90,0.0,0.0,61,0.00,BKN,,0.00,WeatherDisplay:10.37,2013-06-03 16:17:00,
2013-06-03 12:22:00,91.0,75.7,29.90,East,90,0.0,1.4,61,0.00,BKN,,0.00,WeatherDisplay:10.37,2013-06-03 16:22:00,
2013-06-03 12:27:00,90.1,75.8,29.90,SE,135,0.0,0.0,63,0.00,BKN,,0.00,WeatherDisplay:10.37,2013-06-03 16:27:00,
2013-06-03 12:32:00,91.2,76.4,29.89,SE,135,0.0,0.0,62,0.00,BKN,,0.00,WeatherDisplay:10.37,2013-06-03 16:32:00,
2013-06-03 12:37:00,92.8,76.9,29.89,SW,225,0.0,0.0,60,0.00,BKN,,0.00,WeatherDisplay:10.37,2013-06-03 16:37:00,
2013-06-03 12:42:00,92.1,75.7,29.89,SE,135,2.1,2.8,59,0.00,BKN,,0.00,WeatherDisplay:10.37,2013-06-03 16:42:00,
2013-06-03 12:47:00,90.7,74.4,29.89,SW,225,0.0,1.4,59,0.00,BKN,,0.00,WeatherDisplay:10.37,2013-06-03 16:47:00,
2013-06-03 12:52:00,90.7,74.9,29.89,SW,225,0.0,0.0,60,0.00,BKN,,0.00,WeatherDisplay:10.37,2013-06-03 16:52:00,
2013-06-03 12:57:00,90.3,74.5,29.89,SW,225,0.0,1.2,60,0.00,BKN,,0.00,WeatherDisplay:10.37,2013-06-03 16:57:00,
2013-06-03 13:02:00,90.1,74.9,29.89,SW,225,0.1,1.4,61,0.00,BKN,,0.00,WeatherDisplay:10.37,2013-06-03 17:02:00,
2013-06-03 13:07:00,89.8,74.5,29.89,West,270,0.0,0.0,61,0.00,BKN,,0.00,WeatherDisplay:10.37,2013-06-03 17:07:00,
2013-06-03 13:12:00,89.4,75.2,29.89,East,90,2.1,2.8,63,0.00,BKN,,0.00,WeatherDisplay:10.37,2013-06-03 17:12:00,
2013-06-03 13:17:00,88.5,73.8,29.89,East,90,0.0,0.0,62,0.00,BKN,,0.00,WeatherDisplay:10.37,2013-06-03 17:17:00,
2013-06-03 13:22:00,88.5,74.3,29.88,East,90,0.0,2.8,63,0.00,BKN,,0.00,WeatherDisplay:10.37,2013-06-03 17:22:00,
2013-06-03 13:27:00,88.5,74.8,29.89,East,90,0.1,2.8,64,0.00,BKN,,0.00,WeatherDisplay:10.37,2013-06-03 17:27:00,
2013-06-03 13:32:00,90.5,75.7,29.88,SE,135,0.0,0.0,62,0.00,BKN,,0.00,WeatherDisplay:10.37,2013-06-03 17:32:00,
2013-06-03 13:37:00,89.1,74.8,29.88,SW,225,0.0,0.0,63,0.00,BKN,,0.00,WeatherDisplay:10.37,2013-06-03 17:37:00,
2013-06-03 13:42:00,89.2,75.5,29.88,SW,225,0.0,0.0,64,0.00,BKN,,0.00,WeatherDisplay:10.37,2013-06-03 17:42:00,
2013-06-03 13:47:00,89.2,75.0,29.87,South,180,0.0,1.2,63,0.00,BKN,,0.00,WeatherDisplay:10.37,2013-06-03 17:47:00,
2013-06-03 13:52:00,90.3,76.5,29.87,SW,225,0.0,2.3,64,0.00,BKN,,0.00,WeatherDisplay:10.37,2013-06-03 17:52:00,
2013-06-03 13:57:00,92.1,75.7,29.87,SE,135,0.4,2.8,59,0.00,BKN,,0.00,WeatherDisplay:10.37,2013-06-03 17:57:00,
2013-06-03 14:02:00,92.5,75.0,29.87,East,90,0.0,2.3,57,0.00,BKN,,0.00,WeatherDisplay:10.37,2013-06-03 18:02:00,
2013-06-03 14:07:00,90.1,74.9,29.87,West,270,0.0,0.0,61,0.00,BKN,,0.00,WeatherDisplay:10.37,2013-06-03 18:07:00,
2013-06-03 14:12:00,89.4,74.2,29.86,West,270,0.0,0.0,61,0.00,BKN,,0.00,WeatherDisplay:10.37,2013-06-03 18:12:00,
2013-06-03 14:17:00,91.0,75.7,29.86,West,270,0.0,1.4,61,0.00,BKN,,0.00,WeatherDisplay:10.37,2013-06-03 18:17:00,
2013-06-03 14:22:00,92.8,76.9,29.86,SE,135,0.0,2.3,60,0.00,BKN,,0.00,WeatherDisplay:10.37,2013-06-03 18:22:00,
2013-06-03 14:27:00,93.0,76.6,29.86,South,180,0.0,0.0,59,0.00,BKN,,0.00,WeatherDisplay:10.37,2013-06-03 18:27:00,
2013-06-03 14:32:00,92.5,75.6,29.85,South,180,0.0,0.0,58,0.00,BKN,,0.00,WeatherDisplay:10.37,2013-06-03 18:32:00,
2013-06-03 14:37:00,91.8,76.4,29.85,South,180,0.0,0.0,61,0.00,BKN,,0.00,WeatherDisplay:10.37,2013-06-03 18:37:00,
2013-06-03 14:42:00,92.3,74.9,29.85,South,180,0.0,2.8,57,0.00,BKN,,0.00,WeatherDisplay:10.37,2013-06-03 18:42:00,
2013-06-03 14:47:00,92.3,75.4,29.84,NE,45,0.0,0.0,58,0.00,BKN,,0.00,WeatherDisplay:10.37,2013-06-03 18:47:00,
2013-06-03 14:52:00,93.0,76.1,29.84,SE,135,0.0,0.0,58,0.00,BKN,,0.00,WeatherDisplay:10.37,2013-06-03 18:52:00,
2013-06-03 14:57:00,91.9,74.5,29.84,South,180,0.0,0.0,57,0.00,BKN,,0.00,WeatherDisplay:10.37,2013-06-03 18:57:00,
2013-06-03 15:02:00,91.6,74.7,29.83,South,180,0.0,0.0,58,0.00,BKN,,0.00,WeatherDisplay:10.37,2013-06-03 19:02:00,
2013-06-03 15:07:00,93.2,75.7,29.83,South,180,0.0,0.0,57,0.00,BKN,,0.00,WeatherDisplay:10.37,2013-06-03 19:07:00,
2013-06-03 15:12:00,93.4,75.3,29.83,South,180,0.0,0.0,56,0.00,BKN,,0.00,WeatherDisplay:10.37,2013-06-03 19:12:00,
2013-06-03 15:17:00,91.8,73.8,29.84,South,180,0.0,0.0,56,0.00,BKN,,0.00,WeatherDisplay:10.37,2013-06-03 19:17:00,
2013-06-03 15:22:00,90.1,74.4,29.83,South,180,0.0,0.0,60,0.00,BKN,,0.00,WeatherDisplay:10.37,2013-06-03 19:22:00,
2013-06-03 15:27:00,89.2,74.0,29.84,South,180,0.0,0.0,61,0.00,BKN,,0.00,WeatherDisplay:10.37,2013-06-03 19:27:00,
2013-06-03 15:32:00,89.2,74.5,29.83,South,180,0.0,0.0,62,0.00,BKN,,0.00,WeatherDisplay:10.37,2013-06-03 19:32:00,
2013-06-03 15:37:00,88.5,74.8,29.83,South,180,0.0,0.0,64,0.00,BKN,,0.00,WeatherDisplay:10.37,2013-06-03 19:37:00,
2013-06-03 15:42:00,87.6,75.3,29.83,South,180,0.0,0.0,67,0.00,BKN,,0.00,WeatherDisplay:10.37,2013-06-03 19:42:00,
2013-06-03 15:47:00,86.7,75.3,29.83,South,180,0.1,2.8,69,0.00,BKN,,0.00,WeatherDisplay:10.37,2013-06-03 19:47:00,
2013-06-03 15:52:00,85.8,74.5,29.84,South,180,0.0,2.3,69,0.00,BKN,,0.00,WeatherDisplay:10.37,2013-06-03 19:52:00,
2013-06-03 15:57:00,82.0,76.0,29.85,West,270,0.0,0.0,82,0.08,RA,,0.08,WeatherDisplay:10.37,2013-06-03 19:57:00,
2013-06-03 16:02:00,80.2,76.0,29.86,South,180,0.2,7.0,87,0.12,RA,,0.12,WeatherDisplay:10.37,2013-06-03 20:02:00,
2013-06-03 16:07:00,77.7,73.9,29.87,South,180,0.0,2.8,88,0.26,RA,,0.26,WeatherDisplay:10.37,2013-06-03 20:07:00,
2013-06-03 16:12:00,75.9,72.8,29.86,SW,225,0.0,4.6,90,0.63,RA,,0.63,WeatherDisplay:10.37,2013-06-03 20:12:00,
2013-06-03 16:17:00,74.3,71.5,29.84,SW,225,0.0,0.0,91,1.00,RA,,1.00,WeatherDisplay:10.37,2013-06-03 20:17:00,
2013-06-03 16:22:00,73.6,71.1,29.86,SW,225,0.0,0.0,92,1.08,RA,,1.08,WeatherDisplay:10.37,2013-06-03 20:22:00,
2013-06-03 16:27:00,72.5,70.4,29.85,SW,225,0.0,0.0,93,1.10,RA,,1.10,WeatherDisplay:10.37,2013-06-03 20:27:00,
2013-06-03 16:32:00,72.5,70.4,29.85,SW,225,0.0,0.0,93,1.10,RA,,1.10,WeatherDisplay:10.37,2013-06-03 20:32:00,
2013-06-03 16:37:00,72.5,70.7,29.85,West,270,0.0,4.0,94,1.12,RA,,1.12,WeatherDisplay:10.37,2013-06-03 20:37:00,
2013-06-03 16:59:00,73.0,71.5,29.86,NE,45,0.0,0.0,95,1.20,RA,,1.20,WeatherDisplay:10.37,2013-06-03 20:59:00,
2013-06-03 17:04:00,73.2,71.7,29.87,East,90,0.0,0.0,95,1.51,RA,,1.51,WeatherDisplay:10.37,2013-06-03 21:04:00,
2013-06-03 17:09:00,73.2,71.7,29.87,East,90,0.4,5.1,95,1.51,RA,,1.51,WeatherDisplay:10.37,2013-06-03 21:09:00,
2013-06-03 17:14:00,73.2,71.7,29.87,NE,45,1.7,2.3,95,1.59,RA,,1.59,WeatherDisplay:10.37,2013-06-03 21:14:00,
2013-06-03 17:19:00,73.4,72.2,29.87,South,180,0.1,2.7,96,1.45,RA,,1.59,WeatherDisplay:10.37,2013-06-03 21:19:00,
2013-06-03 17:24:00,73.6,72.4,29.86,SE,135,0.0,0.0,96,0.96,RA,,1.59,WeatherDisplay:10.37,2013-06-03 21:24:00,
2013-06-03 17:29:00,73.8,72.5,29.86,SE,135,1.7,0.0,96,0.59,BKN,,1.59,WeatherDisplay:10.37,2013-06-03 21:29:00,
2013-06-03 17:34:00,73.6,72.4,29.86,SE,135,0.0,0.0,96,0.53,BKN,,1.59,WeatherDisplay:10.37,2013-06-03 21:34:00,
2013-06-03 17:39:00,73.8,72.5,29.86,SW,225,0.0,2.3,96,0.51,RA,,1.61,WeatherDisplay:10.37,2013-06-03 21:39:00,
2013-06-03 17:44:00,73.6,72.4,29.86,SW,225,0.0,0.0,96,0.49,RA,,1.61,WeatherDisplay:10.37,2013-06-03 21:44:00,
2013-06-03 17:49:00,73.6,72.4,29.86,SW,225,0.0,0.0,96,0.49,RA,,1.61,WeatherDisplay:10.37,2013-06-03 21:49:00,
2013-06-03 17:54:00,73.8,72.5,29.86,South,180,3.5,0.0,96,0.49,BKN,,1.61,WeatherDisplay:10.37,2013-06-03 21:54:00,
2013-06-03 17:59:00,73.8,72.5,29.86,SW,225,0.0,0.0,96,0.49,BKN,,1.61,WeatherDisplay:10.37,2013-06-03 21:59:00,
2013-06-03 18:04:00,73.8,72.5,29.86,SW,225,0.0,0.0,96,0.49,BKN,,1.61,WeatherDisplay:10.37,2013-06-03 22:04:00,
2013-06-03 18:09:00,73.8,72.5,29.86,SW,225,0.0,0.0,96,0.49,BKN,,1.61,WeatherDisplay:10.37,2013-06-03 22:09:00,
2013-06-03 18:14:00,74.1,72.9,29.86,East,90,0.0,0.0,96,0.49,BKN,,1.61,WeatherDisplay:10.37,2013-06-03 22:14:00,
2013-06-03 18:19:00,74.1,72.9,29.86,East,90,0.0,0.0,96,0.49,BKN,,1.61,WeatherDisplay:10.37,2013-06-03 22:19:00,
2013-06-03 18:24:00,74.3,73.1,29.86,NE,45,0.0,0.0,96,0.47,BKN,,1.61,WeatherDisplay:10.37,2013-06-03 22:24:00,
2013-06-03 18:29:00,74.3,73.1,29.86,NE,45,1.8,2.3,96,0.47,BKN,,1.61,WeatherDisplay:10.37,2013-06-03 22:29:00,
2013-06-03 18:34:00,74.3,73.1,29.86,South,180,3.6,3.6,96,0.41,BKN,,1.61,WeatherDisplay:10.37,2013-06-03 22:34:00,
2013-06-03 18:39:00,74.5,73.3,29.86,NE,45,1.2,6.9,96,0.41,BKN,,1.61,WeatherDisplay:10.37,2013-06-03 22:39:00,
2013-06-03 18:44:00,74.7,73.1,29.87,NE,45,0.2,2.7,95,0.41,BKN,,1.61,WeatherDisplay:10.37,2013-06-03 22:44:00,
2013-06-03 18:49:00,74.8,73.3,29.87,NE,45,3.4,3.4,95,0.26,BKN,,1.61,WeatherDisplay:10.37,2013-06-03 22:49:00,
2013-06-03 18:54:00,75.0,73.5,29.87,NE,45,1.7,1.7,95,0.10,BKN,,1.61,WeatherDisplay:10.37,2013-06-03 22:54:00,
2013-06-03 18:59:00,75.0,73.5,29.87,NE,45,0.0,0.0,95,0.10,BKN,,1.61,WeatherDisplay:10.37,2013-06-03 22:59:00,
2013-06-03 19:04:00,75.4,73.8,29.88,South,180,0.0,1.2,95,0.02,BKN,,1.61,WeatherDisplay:10.37,2013-06-03 23:04:00,
2013-06-03 19:09:00,75.7,74.2,29.88,South,180,0.0,0.0,95,0.02,BKN,,1.61,WeatherDisplay:10.37,2013-06-03 23:09:00,
2013-06-03 19:14:00,75.6,73.7,29.88,NE,45,0.0,0.0,94,0.02,BKN,,1.61,WeatherDisplay:10.37,2013-06-03 23:14:00,
2013-06-03 19:19:00,75.6,73.7,29.89,NE,45,0.0,0.0,94,0.02,BKN,,1.61,WeatherDisplay:10.37,2013-06-03 23:19:00,
2013-06-03 19:24:00,75.4,73.5,29.89,NE,45,0.0,0.0,94,0.02,BKN,,1.61,WeatherDisplay:10.37,2013-06-03 23:24:00,
2013-06-03 19:29:00,75.2,73.4,29.88,NE,45,0.0,0.0,94,0.02,BKN,,1.61,WeatherDisplay:10.37,2013-06-03 23:29:00,
2013-06-03 19:34:00,75.0,73.2,29.88,NE,45,0.0,0.0,94,0.00,BKN,,1.61,WeatherDisplay:10.37,2013-06-03 23:34:00,
2013-06-03 19:39:00,74.8,73.0,29.89,NE,45,0.0,0.0,94,0.00,BKN,,1.61,WeatherDisplay:10.37,2013-06-03 23:39:00,
2013-06-03 19:44:00,74.5,72.6,29.89,NE,45,0.0,2.3,94,0.00,BKN,,1.61,WeatherDisplay:10.37,2013-06-03 23:44:00,
2013-06-03 19:49:00,74.3,72.5,29.88,NE,45,0.0,1.3,94,0.00,BKN,,1.61,WeatherDisplay:10.37,2013-06-03 23:49:00,
2013-06-03 19:54:00,74.1,72.3,29.88,SE,135,0.0,0.0,94,0.00,BKN,,1.61,WeatherDisplay:10.37,2013-06-03 23:54:00,
2013-06-03 19:59:00,73.9,72.1,29.88,SE,135,0.0,0.0,94,0.00,BKN,,1.61,WeatherDisplay:10.37,2013-06-03 23:59:00,
2013-06-03 20:04:00,73.8,72.2,29.88,SE,135,0.0,0.0,95,0.00,BKN,,1.61,WeatherDisplay:10.37,2013-06-04 00:04:00,
2013-06-03 20:09:00,73.6,71.7,29.88,SE,135,0.0,0.0,94,0.00,BKN,,1.61,WeatherDisplay:10.37,2013-06-04 00:09:00,
2013-06-03 20:14:00,73.2,71.7,29.89,SE,135,0.0,0.0,95,0.00,BKN,,1.61,WeatherDisplay:10.37,2013-06-04 00:14:00,
2013-06-03 20:19:00,73.2,71.7,29.89,SE,135,0.0,0.0,95,0.00,BKN,,1.61,WeatherDisplay:10.37,2013-06-04 00:19:00,
2013-06-03 20:24:00,73.2,71.7,29.89,SE,135,0.0,0.0,95,0.00,BKN,,1.61,WeatherDisplay:10.37,2013-06-04 00:24:00,
2013-06-03 20:29:00,73.2,71.7,29.89,SE,135,0.0,0.0,95,0.00,BKN,,1.61,WeatherDisplay:10.37,2013-06-04 00:29:00,
2013-06-03 20:34:00,73.0,71.5,29.89,SE,135,0.0,0.0,95,0.00,BKN,,1.61,WeatherDisplay:10.37,2013-06-04 00:34:00,
2013-06-03 20:39:00,73.0,71.5,29.89,SE,135,0.0,0.0,95,0.00,BKN,,1.61,WeatherDisplay:10.37,2013-06-04 00:39:00,
2013-06-03 20:44:00,72.7,71.2,29.89,SE,135,0.0,0.0,95,0.00,BKN,,1.61,WeatherDisplay:10.37,2013-06-04 00:44:00,
2013-06-03 20:49:00,72.9,71.7,29.89,SE,135,0.0,0.0,96,0.00,BKN,,1.61,WeatherDisplay:10.37,2013-06-04 00:49:00,
2013-06-03 20:54:00,72.7,71.5,29.89,SE,135,0.0,0.0,96,0.00,BKN,,1.61,WeatherDisplay:10.37,2013-06-04 00:54:00,
2013-06-03 20:59:00,72.7,71.5,29.90,SE,135,0.0,0.0,96,0.00,BKN,,1.61,WeatherDisplay:10.37,2013-06-04 00:59:00,
2013-06-03 21:04:00,72.5,71.3,29.89,SE,135,0.0,0.0,96,0.00,BKN,,1.61,WeatherDisplay:10.37,2013-06-04 01:04:00,
2013-06-03 21:09:00,72.7,71.5,29.90,SE,135,0.0,0.0,96,0.00,BKN,,1.61,WeatherDisplay:10.37,2013-06-04 01:09:00,
2013-06-03 21:14:00,72.7,71.5,29.90,SE,135,0.0,0.0,96,0.00,BKN,,1.61,WeatherDisplay:10.37,2013-06-04 01:14:00,
2013-06-03 21:19:00,72.7,71.5,29.91,SE,135,0.0,0.0,96,0.00,BKN,,1.61,WeatherDisplay:10.37,2013-06-04 01:19:00,
2013-06-03 21:24:00,72.7,71.5,29.90,SE,135,0.0,0.0,96,0.00,BKN,,1.61,WeatherDisplay:10.37,2013-06-04 01:24:00,
2013-06-03 21:29:00,72.7,71.5,29.91,SE,135,0.0,0.0,96,0.00,BKN,,1.61,WeatherDisplay:10.37,2013-06-04 01:29:00,
2013-06-03 21:34:00,72.7,71.5,29.91,SE,135,0.0,0.0,96,0.00,BKN,,1.61,WeatherDisplay:10.37,2013-06-04 01:34:00,
2013-06-03 21:39:00,72.7,71.5,29.92,SE,135,0.0,0.0,96,0.00,BKN,,1.61,WeatherDisplay:10.37,2013-06-04 01:39:00,
2013-06-03 21:44:00,72.7,71.5,29.92,SE,135,0.0,0.0,96,0.00,BKN,,1.61,WeatherDisplay:10.37,2013-06-04 01:44:00,
2013-06-03 21:49:00,72.7,71.5,29.91,SE,135,0.0,0.0,96,0.00,BKN,,1.61,WeatherDisplay:10.37,2013-06-04 01:49:00,
2013-06-03 21:54:00,72.7,71.5,29.91,East,90,0.0,0.0,96,0.00,BKN,,1.61,WeatherDisplay:10.37,2013-06-04 01:54:00,
2013-06-03 21:59:00,72.7,71.8,29.91,East,90,0.0,0.0,97,0.00,BKN,,1.61,WeatherDisplay:10.37,2013-06-04 01:59:00,
2013-06-03 22:04:00,72.7,71.8,29.91,East,90,0.0,0.0,97,0.00,BKN,,1.61,WeatherDisplay:10.37,2013-06-04 02:04:00,
2013-06-03 22:09:00,72.9,72.0,29.92,East,90,0.0,0.0,97,0.00,BKN,,1.61,WeatherDisplay:10.37,2013-06-04 02:09:00,
2013-06-03 22:14:00,73.0,72.1,29.92,East,90,0.0,0.0,97,0.02,RA,,1.63,WeatherDisplay:10.37,2013-06-04 02:14:00,
2013-06-03 22:19:00,72.9,72.0,29.92,East,90,0.0,0.0,97,0.04,RA,,1.65,WeatherDisplay:10.37,2013-06-04 02:19:00,
2013-06-03 22:24:00,72.9,72.0,29.93,East,90,0.0,0.0,97,0.04,RA,,1.65,WeatherDisplay:10.37,2013-06-04 02:24:00,
2013-06-03 22:29:00,72.7,71.8,29.93,East,90,0.0,0.0,97,0.04,BKN,,1.65,WeatherDisplay:10.37,2013-06-04 02:29:00,
2013-06-03 22:34:00,72.9,72.0,29.93,East,90,0.0,0.0,97,0.04,BKN,,1.65,WeatherDisplay:10.37,2013-06-04 02:34:00,
2013-06-03 22:39:00,72.7,71.8,29.93,East,90,0.0,0.0,97,0.04,BKN,,1.65,WeatherDisplay:10.37,2013-06-04 02:39:00,
2013-06-03 22:44:00,72.7,71.8,29.94,East,90,0.0,0.0,97,0.04,BKN,,1.65,WeatherDisplay:10.37,2013-06-04 02:44:00,
2013-06-03 22:49:00,72.7,71.8,29.94,East,90,0.0,0.0,97,0.04,BKN,,1.65,WeatherDisplay:10.37,2013-06-04 02:49:00,
2013-06-03 22:54:00,72.7,71.8,29.94,East,90,0.0,0.0,97,0.04,BKN,,1.65,WeatherDisplay:10.37,2013-06-04 02:54:00,
2013-06-03 22:59:00,72.5,71.3,29.94,East,90,0.0,0.0,96,0.04,BKN,,1.65,WeatherDisplay:10.37,2013-06-04 02:59:00,
2013-06-03 23:04:00,72.5,71.3,29.94,East,90,0.0,0.0,96,0.04,BKN,,1.65,WeatherDisplay:10.37,2013-06-04 03:04:00,
2013-06-03 23:08:00,72.5,71.3,29.94,East,90,0.0,0.0,96,0.04,BKN,,1.65,WeatherDisplay:10.37,2013-06-04 03:08:00,
2013-06-03 23:13:00,72.5,71.3,29.94,East,90,0.0,0.0,96,0.04,BKN,,1.65,WeatherDisplay:10.37,2013-06-04 03:13:00,
2013-06-03 23:18:00,72.5,71.6,29.94,East,90,0.0,0.0,97,0.00,BKN,,1.65,WeatherDisplay:10.37,2013-06-04 03:18:00,
2013-06-03 23:23:00,72.3,71.4,29.94,East,90,0.0,0.0,97,0.00,BKN,,1.65,WeatherDisplay:10.37,2013-06-04 03:23:00,
2013-06-03 23:28:00,72.5,71.6,29.93,East,90,0.0,0.0,97,0.00,BKN,,1.65,WeatherDisplay:10.37,2013-06-04 03:28:00,
2013-06-03 23:33:00,72.5,71.6,29.92,East,90,0.0,0.0,97,0.00,BKN,,1.65,WeatherDisplay:10.37,2013-06-04 03:33:00,
2013-06-03 23:38:00,72.5,71.6,29.92,East,90,0.0,0.0,97,0.00,BKN,,1.65,WeatherDisplay:10.37,2013-06-04 03:38:00,
2013-06-03 23:43:00,72.3,71.4,29.92,East,90,0.0,0.0,97,0.00,BKN,,1.65,WeatherDisplay:10.37,2013-06-04 03:43:00,
2013-06-03 23:48:00,72.3,71.4,29.92,East,90,0.0,0.0,97,0.00,BKN,,1.65,WeatherDisplay:10.37,2013-06-04 03:48:00,
2013-06-03 23:54:00,72.3,71.4,29.92,East,90,0.0,0.0,97,0.00,BKN,,1.65,WeatherDisplay:10.37,2013-06-04 03:54:00,
2013-06-03 23:59:00,72.3,71.4,29.92,East,90,0.0,0.0,97,0.00,BKN,,1.65,WeatherDisplay:10.37,2013-06-04 03:59:00,